SL-12 R/B(AUX MOTOR), 36406

Orbit data source: Space-Track

SL-12 R/B(AUX MOTOR), 36406 is space debris in HEO originally from a launch on Mon, 01 Mar 2010 UTC launched from the Tyuratam Missile And Space Complex (TTMTR). Debris objects in space refer to the collection of defunct objects orbiting the Earth. Examples of debris include non-operational satellites, rocket bodies, and fragments generated from explosions, collisions, or faulty payload assembly.

Loading next visibility...
Identifier
36406, 2010-007G
Orbit
HEO
Country
Flag of CISCIS
Related business
Manufacturer
RKKE
Mission
Spacecraft
Bus & Motor
SOZ, Unknown motor
Mass
56 kg wet, 56 kg dry
Launch date (UTC)
2010-03-01 (17 years ago)
Launch vehicle
Unknown
Launch site
Tyuratam Missile And Space Complex (TTMTR)
Object type
Payload
Rocket body
Debris
Shape & HBR
Cyl, 0.6 m
Radar Cross Section
0.660 m², Medium (>0.1 m² and < 1m²)

Expand to show TLE details & history
Last TLE update: 6 days ago

TLE from 6 days ago
0 SL-12 R/B(AUX MOTOR)
1 36406U 10007G   26251.32796587 -.00000045  00000-0  50894-4 0  9990
2 36406  64.6341 183.0907 5636425 324.3709   8.5785  4.23097406186746
Epoch: 2026-09-08T07:52Z
TLE epoch observation values (Epoch: 2026-09-08T07:52:16.251Z)
Latitude
0.00037°
Longitude
77.61619°
Altitude
1,180.337 km
Speed
8.989 km/s
True Right ascension
12h 12m 19s
True Declination
0° 00' 01"
Sunlit
Object was in daylight at epoch
Visualization orbit readout
Latitude
Unknown
Longitude
Unknown
Altitude
Unknown
Speed
Unknown
Apparent Right ascension
Unknown
Apparent Declination
Unknown
Sunlit
N/A
Visualization observer readout
Local Sidereal Time
21:50:16
Azimuth
Unknown
Elevation
Unknown
Doppler factor
Unknown
Orbital elements
Apogee altitude
18,869.268 km
Perigee altitude
667.524 km
Semi-major axis
16,146.533 km
Eccentricity
0.56364
Inclination
64.6341°
RAAN
183.0907°
Arg. of periapsis
324.3709°
True anomaly
35.50384°
Mean anomaly
8.5785°
Eccentric anomaly
19.19793°
Mean motion
1.05785 °/min
Orbital period
340.31 mins
BSTAR
0.000050894
Loading maneuver chart data...
Computing Atmospheric mass density...
Loading historical data...
Loading historical data...
Loading historical data...
Loading historical data...
Loading historical data...
Loading historical data...
Loading historical data...

Documentation

Showing up to 5 results
|